Regional Weather Roundup
Issued by NWS

Home | Current Version | Previous Version | Text Only | Print | Product List | Glossary On
Versions: 1 2 3 4 5 6 7 8 9 10 11 12 13 14 15 16 17 18 19 20 21 22 23 24 25 26 27 28 29 30 31 32 33 34 35 36 37 38 39 40 41 42 43 44 45 46 47 48 49 50
000
ASUS43 KBIS 201010
RWRND

NORTH DAKOTA REGIONAL WEATHER ROUNDUP
NATIONAL WEATHER SERVICE BISMARCK ND
500 AM CDT SUN AUG 20 2017

NOTE: "FAIR" INDICATES FEW OR NO CLOUDS BELOW 12,000 FEET WITH NO
SIGNIFICANT WEATHER AND/OR OBSTRUCTIONS TO VISIBILITY.


NDZ001>003-009>011-017-201100-
NORTHWEST NORTH DAKOTA

CITY           SKY/WX    TMP DP  RH WIND       PRES   REMARKS
WILLISTON      CLEAR     46  40  79 SW3       30.03R
MINOT          CLOUDY    57  41  55 W12       29.97R
MINOT AFB      PTCLDY    48  41  76 W6        29.96R
$$

NDZ018>021-031>035-040>046-201100-
SOUTHWEST NORTH DAKOTA

CITY           SKY/WX    TMP DP  RH WIND       PRES   REMARKS
BISMARCK       MOCLDY    60  49  66 NW6       29.99R
DICKINSON      CLOUDY    50  44  80 NW7       30.03R
GARRISON         N/A     51  45  79 NW12      29.98R
HETTINGER ARPT CLOUDY    61  42  49 N13G18    30.03R
$$

NDZ004>008-012>016-024-026-027-054-201100-
NORTHEAST NORTH DAKOTA

CITY           SKY/WX    TMP DP  RH WIND       PRES   REMARKS
GRAND FORKS    CLEAR     62  53  72 NW10      29.81R
GRND FRKS AFB  CLEAR     61  51  69 NW10G20   29.84R
DEVILS LAKE    CLEAR     57  50  77 NW10      29.91R
$$

NDZ022-023-025-028>030-036>039-047>053-201100-
SOUTHEAST NORTH DAKOTA

CITY           SKY/WX    TMP DP  RH WIND       PRES   REMARKS
FARGO          CLEAR     64  56  75 NW12      29.84R
JAMESTOWN      CLEAR     58  52  80 NW6       29.91R
$$





USA.gov is the U.S. government's official web portal to all federal, state and local government web resources and services.